Weather reports worldwide

Advertisment
Lugo/Rozas, Spain (8008): temperature & dewpoint: 07.07.2020 05:00:00 - 13.07.2020 05:00:00 (CEST)Lugo/Rozas, Spain (8008): wind speed: 07.07.2020 05:00:00 - 13.07.2020 05:00:00 (CEST)Lugo/Rozas, Spain (8008): wind direction: 07.07.2020 05:00:00 - 13.07.2020 05:00:00 (CEST)Lugo/Rozas, Spain (8008): reduced air pressure: 07.07.2020 05:00:00 - 13.07.2020 05:00:00 (CEST)Lugo/Rozas, Spain (8008): visibility: 07.07.2020 05:00:00 - 13.07.2020 05:00:00 (CEST)Lugo/Rozas, Spain (8008): precipitation: 07.07.2020 05:00:00 - 13.07.2020 05:00:00 (CEST)
Date & Time tt [°C] td [°C] ff [km/h] ff [kn] dd ppp [hPa] vv [km] rr [mm]
13.07.2020 05:00:00 15,4 14,1 9 5 NE 1022,5 19 -
13.07.2020 04:00:00 15,3 14,0 9 5 NE 1022,6 19 0,0
13.07.2020 03:00:00 15,4 14,1 9 5 NE 1022,7 19 0,0
13.07.2020 02:00:00 15,7 14,6 9 5 NE 1023,0 19 -
13.07.2020 01:00:00 15,9 14,8 11 6 NE 1022,8 19 0,0
13.07.2020 00:00:00 15,9 14,8 13 7 NE 1022,9 17 0,0
12.07.2020 23:00:00 16,2 14,6 4 2 NE 1022,4 19 -
12.07.2020 22:00:00 17,6 14,9 5 3 NE 1021,3 20 0,0
12.07.2020 21:00:00 19,3 15,0 9 5 ENE 1020,4 20 0,0
12.07.2020 20:00:00 20,7 15,3 13 7 NE 1019,7 20 -
12.07.2020 19:00:00 21,9 15,5 22 12 ENE 1019,2 20 0,0
12.07.2020 18:00:00 23,9 16,4 13 7 NE 1018,5 20 0,0
12.07.2020 17:00:00 24,9 18,1 11 6 NE 1018,2 20 -
12.07.2020 16:00:00 24,3 17,8 13 7 ENE 1018,4 20 0,0
12.07.2020 15:00:00 25,3 18,0 8 4 NE 1018,3 20 0,0
12.07.2020 14:00:00 24,3 17,5 5 3 NNE 1018,2 20 -
12.07.2020 13:00:00 23,1 17,1 9 5 NE 1018,3 20 0,0
12.07.2020 12:00:00 21,6 16,3 8 4 NE 1018,5 20 0,0
12.07.2020 11:00:00 18,6 16,0 8 4 NE 1019,1 20 -
12.07.2020 10:00:00 16,8 15,3 9 5 ENE 1018,8 18 0,0
12.07.2020 09:00:00 16,7 15,2 8 4 NE 1018,6 18 0,0
12.07.2020 08:00:00 16,2 14,9 8 4 NE 1018,4 20 -
12.07.2020 07:00:00 15,9 14,6 11 6 ENE 1018,4 19 0,0
12.07.2020 06:00:00 15,4 14,6 13 7 ENE 1017,3 14 0,0
12.07.2020 05:00:00 15,3 14,5 13 7 ENE 1017,8 15 -
12.07.2020 04:00:00 15,6 14,6 9 5 ENE 1017,8 15 0,0
12.07.2020 03:00:00 15,7 14,7 11 6 ENE 1018,0 15 0,0
12.07.2020 02:00:00 15,9 14,6 11 6 ENE 1018,2 17 -
12.07.2020 01:00:00 16,3 14,8 8 4 NE 1017,9 18 0,0
12.07.2020 00:00:00 16,5 14,9 5 3 NE 1018,1 18 0,0
11.07.2020 23:00:00 16,8 15,1 11 6 NE 1018,0 18 -
11.07.2020 22:00:00 17,5 15,3 8 4 NE 1017,2 19 0,0
11.07.2020 21:00:00 18,7 15,4 9 5 NE 1017,0 20 0,0
11.07.2020 20:00:00 20,5 15,7 9 5 NE 1016,5 20 -
11.07.2020 19:00:00 20,9 15,7 16 9 ENE 1016,7 20 0,0
11.07.2020 18:00:00 22,2 16,0 13 7 NE 1016,8 20 0,0
11.07.2020 17:00:00 22,5 15,8 13 7 NE 1016,5 20 -
11.07.2020 16:00:00 22,6 15,9 11 6 NE 1016,8 20 0,0
11.07.2020 15:00:00 22,1 15,2 13 7 NE 1017,4 20 0,0
11.07.2020 14:00:00 21,7 15,1 9 5 NE 1018,0 20 -
11.07.2020 13:00:00 21,2 14,6 11 6 NE 1018,2 20 0,0
11.07.2020 12:00:00 20,3 14,6 13 7 NE 1018,5 20 0,0
11.07.2020 11:00:00 18,8 13,4 16 9 ENE 1018,9 20 -
11.07.2020 10:00:00 17,6 13,1 13 7 NE 1019,1 20 0,0
11.07.2020 09:00:00 15,9 13,0 15 8 ENE 1019,6 20 0,0
11.07.2020 08:00:00 14,5 12,7 9 5 NE 1019,8 20 -
11.07.2020 07:00:00 14,2 12,6 13 7 ENE 1019,7 20 0,0
11.07.2020 06:00:00 14,1 12,5 9 5 NE 1019,5 20 0,0
11.07.2020 05:00:00 14,4 12,6 11 6 NE 1019,5 20 -
11.07.2020 04:00:00 14,4 12,4 8 4 NE 1019,8 20 0,0
11.07.2020 03:00:00 14,5 12,5 11 6 ENE 1020,2 20 0,0
11.07.2020 02:00:00 14,0 12,4 9 5 NE 1020,8 20 -
11.07.2020 01:00:00 13,8 12,4 8 4 NE 1021,1 20 0,0
11.07.2020 00:00:00 14,1 12,3 8 4 NE 1021,1 20 0,0
10.07.2020 23:00:00 14,6 12,3 9 5 NE 1021,0 20 -
10.07.2020 22:00:00 15,0 12,5 9 5 NE 1020,6 20 0,0
10.07.2020 21:00:00 15,6 12,7 11 6 NE 1020,4 20 0,0
10.07.2020 20:00:00 17,2 12,9 13 7 NE 1020,1 20 -
10.07.2020 19:00:00 18,2 13,3 13 7 NE 1019,8 20 0,0
10.07.2020 18:00:00 18,6 13,7 15 8 ENE 1019,7 20 0,0
10.07.2020 17:00:00 19,5 14,1 13 7 NE 1019,6 20 -
10.07.2020 16:00:00 18,7 14,4 13 7 NE 1020,1 20 0,0
10.07.2020 15:00:00 19,5 14,3 11 6 NE 1020,4 20 0,0
10.07.2020 14:00:00 19,5 14,3 13 7 NE 1020,2 20 -
10.07.2020 13:00:00 18,6 14,1 13 7 ENE 1020,6 20 0,0
10.07.2020 12:00:00 18,1 14,4 9 5 NE 1020,5 20 0,0
10.07.2020 11:00:00 16,7 14,5 5 3 NE 1020,9 20 -
10.07.2020 10:00:00 15,3 13,8 8 4 NE 1021,0 17 0,0
10.07.2020 09:00:00 14,7 13,6 5 3 NE 1020,8 17 0,0
10.07.2020 08:00:00 14,5 13,9 4 2 NNE 1020,9 7 -
10.07.2020 07:00:00 14,4 13,3 2 1 N 1020,7 20 0,0
10.07.2020 06:00:00 14,2 12,8 5 3 ENE 1020,2 20 0,0
10.07.2020 05:00:00 13,6 12,3 4 2 NE 1020,6 20 -
10.07.2020 04:00:00 12,6 11,8 4 2 NE 1021,1 20 0,0
10.07.2020 03:00:00 13,2 11,9 2 1 NE 1021,3 20 0,0
10.07.2020 02:00:00 12,8 11,5 4 2 NNW 1021,7 19 -
10.07.2020 01:00:00 13,4 10,6 2 1 W 1022,0 20 0,0
10.07.2020 00:00:00 14,9 11,9 2 1 NNW 1021,3 20 0,0
09.07.2020 23:00:00 16,2 12,0 2 1 NE 1020,8 20 -
09.07.2020 22:00:00 17,9 11,7 5 3 NE 1019,9 20 0,0
09.07.2020 21:00:00 20,5 10,9 13 7 ENE 1019,1 20 0,0
09.07.2020 20:00:00 23,1 10,5 8 4 NE 1018,3 20 -
09.07.2020 19:00:00 24,7 10,9 5 3 NNE 1017,7 20 0,0
09.07.2020 18:00:00 25,7 11,5 8 4 NNE 1017,8 20 0,0
09.07.2020 17:00:00 26,5 12,2 8 4 N 1017,9 20 -
09.07.2020 16:00:00 26,5 12,2 9 5 NNE 1018,0 20 0,0
09.07.2020 15:00:00 25,5 11,6 13 7 ENE 1018,2 20 0,0
09.07.2020 14:00:00 24,4 13,6 13 7 ENE 1018,6 20 -
09.07.2020 13:00:00 23,7 13,0 8 4 NNE 1018,9 20 0,0
09.07.2020 12:00:00 22,2 14,8 5 3 N 1019,1 16 0,0
09.07.2020 11:00:00 20,5 14,8 5 3 NE 1019,3 18 -
09.07.2020 10:00:00 18,6 13,7 9 5 NE 1019,4 18 0,0
09.07.2020 09:00:00 16,8 14,4 2 1 N 1019,4 13 0,0
09.07.2020 08:00:00 14,3 13,7 2 1 NNE 1019,6 9 -
09.07.2020 07:00:00 14,3 13,5 2 1 N 1019,4 8 0,0
09.07.2020 06:00:00 15,4 14,1 4 2 NE 1018,6 13 0,0
09.07.2020 05:00:00 15,8 14,8 9 5 ENE 1018,3 15 -
09.07.2020 04:00:00 15,9 14,9 5 3 NE 1018,1 12 0,0
09.07.2020 03:00:00 16,0 15,2 8 4 NE 1018,1 14 0,0
09.07.2020 02:00:00 16,1 15,3 4 2 NNE 1018,3 15 -
09.07.2020 01:00:00 16,0 15,4 8 4 NE 1018,3 13 0,0
09.07.2020 00:00:00 16,1 15,6 9 5 NE 1018,6 10 0,0
08.07.2020 23:00:00 16,3 15,8 11 6 NE 1017,3 9 -
08.07.2020 22:00:00 16,7 15,6 8 4 ENE 1016,8 16 0,0
08.07.2020 21:00:00 17,2 15,5 8 4 NE 1016,9 17 0,0
08.07.2020 20:00:00 17,3 15,8 11 6 NE 1016,0 16 -
08.07.2020 19:00:00 17,6 16,1 11 6 NE 1015,5 16 0,0
08.07.2020 18:00:00 17,5 16,2 11 6 NE 1015,8 13 0,0
08.07.2020 17:00:00 18,6 16,2 9 5 NE 1015,8 18 -
08.07.2020 16:00:00 19,9 16,1 13 7 NE 1015,6 19 0,0
08.07.2020 15:00:00 19,1 16,1 8 4 NE 1015,8 18 0,0
08.07.2020 14:00:00 18,5 16,1 13 7 ENE 1016,1 15 -
08.07.2020 13:00:00 17,5 15,3 13 7 NE 1016,3 19 0,0
08.07.2020 12:00:00 16,5 15,2 13 7 ENE 1016,4 18 0,0
08.07.2020 11:00:00 16,1 15,1 11 6 ENE 1016,4 19 -
08.07.2020 10:00:00 - - - - - - - -
08.07.2020 09:00:00 15,1 14,9 11 6 ENE 1016,0 6 0,0
08.07.2020 08:00:00 14,8 14,8 13 7 ENE 1016,1 3,1 -
08.07.2020 07:00:00 14,9 14,7 13 7 ENE 1015,9 3,9 0,0
08.07.2020 06:00:00 15,1 14,8 8 4 NE 1015,9 - 0,0
08.07.2020 05:00:00 15,3 14,8 9 5 ENE 1016,0 - -
08.07.2020 04:00:00 15,3 14,7 9 5 ENE 1016,2 8 0,0
08.07.2020 03:00:00 15,4 14,8 15 8 ENE 1016,6 9 0,0
08.07.2020 02:00:00 15,6 14,6 9 5 ENE 1017,1 11 -
08.07.2020 01:00:00 15,6 14,5 11 6 ENE 1017,2 14 0,0
08.07.2020 00:00:00 15,5 14,2 8 4 NE 1017,3 14 0,0
07.07.2020 23:00:00 15,5 14,2 8 4 NE 1017,2 15 -
07.07.2020 22:00:00 15,9 13,9 9 5 NE 1016,7 17 0,0
07.07.2020 21:00:00 18,5 14,2 8 4 NE 1016,1 20 0,0
07.07.2020 20:00:00 20,6 14,7 9 5 NE 1015,6 20 -
07.07.2020 19:00:00 21,6 14,7 13 7 NE 1015,6 20 0,0
07.07.2020 18:00:00 22,7 15,5 13 7 ENE 1015,7 20 0,0
07.07.2020 17:00:00 23,1 15,9 11 6 NE 1016,1 20 -
07.07.2020 16:00:00 23,1 15,9 9 5 NE 1016,3 20 0,0
07.07.2020 15:00:00 22,8 15,4 8 4 NE 1016,6 20 0,0
07.07.2020 14:00:00 21,4 15,0 9 5 NE 1017,1 20 -
07.07.2020 13:00:00 20,7 14,6 11 6 NE 1017,4 20 0,0
07.07.2020 12:00:00 19,4 14,0 8 4 NE 1017,9 19 0,0
07.07.2020 11:00:00 17,0 13,3 11 6 NE 1018,5 20 -
07.07.2020 10:00:00 15,7 13,0 9 5 ENE 1019,0 20 0,0
07.07.2020 09:00:00 14,3 12,5 11 6 NE 1019,0 20 0,0
07.07.2020 08:00:00 13,9 12,6 11 6 ENE 1019,0 20 -
07.07.2020 07:00:00 13,8 12,5 9 5 ENE 1019,0 20 0,0
07.07.2020 06:00:00 13,9 12,6 11 6 ENE 1019,2 19 0,0
07.07.2020 05:00:00 14,0 12,9 15 8 ENE 1019,4 19 -

tt = temperature
td = dewpoint
ff = wind speed
dd = wind direction
ppp = reduced air pressure
vv = visibility
rr = precipitation

Next stations